EW5246 Weather Reports


time (UTC)temp
C
wind
direction
speed
KPH
gust
KPH
rain 1hr
cm
rain 24hr
cm
rain mn
cm
humidity
%
barometer
mb
20260508054533 7 221 0.0 4.8 0.00 0.00 0.00 71 1012.9
20260508053019 7 246 0.0 0.0 0.00 0.00 0.00 72 1013.1
20260508051514 7 209 0.0 4.8 0.00 0.00 0.00 71 1013.2
20260508050012 7 224 0.0 0.0 0.00 0.00 0.00 71 1013.2
20260508044506 6 233 1.6 4.8 0.00 0.00 0.00 70 1013.2
20260508043004 6 217 0.0 1.6 0.00 0.00 0.00 70 1013.3
20260508041504 6 218 0.0 3.2 0.00 0.00 0.00 69 1013.2
20260508040200 6 226 1.6 8.0 0.00 0.00 0.00 67 1013.2
20260508034559 6 226 0.0 6.4 0.00 0.00 0.00 65 1013.2
20260508033059 6 209 0.0 0.0 0.00 0.00 0.00 65 1013.2
20260508031558 6 257 0.0 0.0 0.00 0.00 0.00 66 1013.2
20260508030058 6 257 0.0 0.0 0.00 0.00 0.00 65 1013.2
20260508024556 6 257 0.0 0.0 0.00 0.00 0.00 65 1013.3
20260508023056 6 257 0.0 0.0 0.00 0.00 0.00 63 1013.2
20260508021556 7 257 0.0 0.0 0.00 0.00 0.00 61 1013.2
20260508020058 7 257 0.0 0.0 0.00 0.00 0.00 63 1013.1
20260508014555 7 257 0.0 0.0 0.00 0.00 0.00 60 1013.0
20260508013055 7 257 0.0 0.0 0.00 0.00 0.00 58 1012.9
20260508011554 8 257 0.0 3.2 0.00 0.00 0.00 53 1012.9
20260508010100 8 257 0.0 3.2 0.00 0.00 0.00 51 1012.8
20260508004604 9 253 3.2 6.4 0.00 0.00 0.00 49 1012.8
20260508003059 10 268 3.2 12.9 0.00 0.00 0.00 48 1012.7
20260508001600 10 269 6.4 12.9 0.00 0.00 0.00 46 1012.7
20260507234602 11 270 8.0 19.3 0.00 0.00 0.00 45 1012.3
20260507233116 11 282 12.9 25.7 0.00 0.00 0.00 44 1012.4
20260507231555 11 248 9.7 24.1 0.00 0.00 0.00 44 1012.4
20260507230054 11 282 11.3 22.5 0.00 0.00 0.00 43 1012.5
20260507224554 11 274 16.1 27.4 0.00 0.00 0.00 42 1012.4
20260507223104 11 297 17.7 29.0 0.00 0.00 0.00 42 1012.5
20260507221552 12 253 12.9 25.7 0.00 0.00 0.00 42 1012.5
20260507220052 11 288 11.3 33.8 0.00 0.00 0.00 50 1012.4
20260507214553 11 292 12.9 27.4 0.00 0.00 0.00 52 1012.4
20260507213046 11 288 9.7 25.7 0.00 0.00 0.00 53 1012.2
20260507211556 11 285 9.7 24.1 0.00 0.00 0.00 56 1012.0
20260507210106 10 296 6.4 16.1 0.00 0.00 0.00 59 1011.8
20260507204549 10 286 12.9 20.9 0.00 0.00 0.00 58 1011.9
20260507203047 11 309 9.7 24.1 0.00 0.00 0.00 56 1011.7
20260507201547 11 320 6.4 14.5 0.00 0.00 0.00 56 1011.6
20260507200053 11 298 6.4 17.7 0.00 0.00 0.00 54 1011.5
20260507194553 11 325 6.4 14.5 0.00 0.00 0.00 54 1011.7
20260507193042 12 271 3.2 12.9 0.00 0.00 0.00 52 1011.8
20260507191545 11 312 4.8 20.9 0.00 0.00 0.00 51 1011.8
20260507190047 11 32 4.8 16.1 0.00 0.00 0.00 51 1012.0
20260507184544 11 307 8.0 16.1 0.00 0.00 0.00 52 1012.2
20260507183050 10 297 8.0 16.1 0.00 0.00 0.00 52 1012.2
20260507181538 11 323 8.0 17.7 0.00 0.00 0.00 52 1012.1
20260507180037 11 290 8.0 19.3 0.00 0.00 0.00 53 1012.0
20260507174536 11 298 6.4 12.9 0.00 0.00 0.00 55 1012.1
20260507173044 11 274 8.0 17.7 0.00 0.00 0.00 56 1012.1
20260507171533 12 274 8.0 17.7 0.00 0.00 0.00 52 1012.1
20260507170033 11 246 9.7 17.7 0.00 0.00 0.00 55 1012.3
20260507164544 11 263 8.0 17.7 0.00 0.00 0.00 52 1012.2
20260507163032 12 248 9.7 22.5 0.00 0.00 0.00 45 1012.2
20260507161539 13 283 3.2 11.3 0.00 0.00 0.00 48 1012.1
20260507160028 12 278 4.8 14.5 0.00 0.00 0.00 47 1012.2
20260507154526 12 298 4.8 17.7 0.00 0.00 0.00 46 1012.3
20260507153033 12 275 8.0 20.9 0.00 0.00 0.00 44 1012.4
20260507151522 11 194 3.2 12.9 0.00 0.00 0.00 46 1012.5
20260507150021 11 298 3.2 11.3 0.00 0.00 0.00 50 1012.5
20260507144525 11 254 4.8 9.7 0.00 0.00 0.00 53 1012.5
20260507143022 11 287 4.8 9.7 0.00 0.00 0.00 54 1012.6
20260507141519 10 248 1.6 12.9 0.00 0.00 0.00 58 1012.8
20260507140019 10 294 4.8 12.9 0.00 0.00 0.00 56 1012.9
20260507134513 10 287 0.0 11.3 0.00 0.00 0.00 61 1013.0
20260507133009 9 284 4.8 12.9 0.00 0.00 0.00 62 1013.2
20260507131516 9 269 4.8 8.0 0.00 0.00 0.00 68 1013.3
20260507130003 8 352 3.2 9.7 0.00 0.00 0.00 72 1013.3
20260507124508 8 219 3.2 9.7 0.00 0.00 0.00 73 1013.0
20260507123100 8 244 3.2 8.0 0.00 0.00 0.00 73 1013.0
20260507121557 8 205 1.6 9.7 0.00 0.00 0.00 75 1012.9
20260507120054 7 214 0.0 6.4 0.00 0.00 0.00 78 1012.9
20260507114606 6 198 1.6 6.4 0.00 0.00 0.00 79 1012.9
20260507113109 6 230 3.2 8.0 0.00 0.00 0.00 81 1013.0
20260507111553 5 219 1.6 4.8 0.00 0.00 0.00 83 1012.9
20260507110029 4 219 1.6 6.4 0.00 0.03 0.00 85 1012.8
20260507104538 4 231 1.6 4.8 0.00 0.03 0.00 86 1012.6
20260507103027 4 231 1.6 4.8 0.00 0.03 0.00 85 1012.6
20260507101526 4 231 0.0 4.8 0.00 0.03 0.00 85 1012.6
20260507100025 5 231 1.6 4.8 0.00 0.18 0.00 85 1012.5
20260507094525 5 231 0.0 3.2 0.00 0.18 0.00 85 1012.6
20260507093023 5 231 1.6 4.8 0.00 0.18 0.00 84 1012.5
20260507091524 5 231 0.0 4.8 0.00 0.18 0.00 85 1012.7
20260507090023 4 231 0.0 3.2 0.00 0.30 0.00 86 1012.7
20260507084525 4 231 0.0 4.8 0.00 0.30 0.00 86 1012.7
20260507083020 4 209 1.6 3.2 0.00 0.30 0.00 87 1012.8
20260507081532 4 153 3.2 4.8 0.00 0.30 0.00 86 1012.8
20260507080018 4 157 0.0 3.2 0.00 0.53 0.00 86 1012.9
20260507074516 4 157 0.0 1.6 0.00 0.53 0.00 85 1012.8
20260507073015 4 157 0.0 0.0 0.00 0.53 0.00 85 1012.8
20260507071512 5 155 0.0 3.2 0.00 0.53 0.00 83 1012.9
20260507070013 5 157 3.2 6.4 0.00 0.71 0.00 82 1013.0
20260507064508 5 152 3.2 6.4 0.00 0.71 0.00 83 1013.1
20260507063008 5 154 1.6 8.0 0.00 0.71 0.00 83 1013.2
20260507061505 5 143 0.0 3.2 0.00 0.71 0.00 83 1013.4
20260507060003 5 142 0.0 8.0 0.00 0.89 0.00 83 1013.4